IRIDIUM 180 1 43922U 19002A 21019.19851014 .00000103 00000-0 29545-4 0 9997 2 43922 86.3968 98.9780 0003013 111.8638 248.2878 14.34217711105958 IRIDIUM 176 1 43923U 19002B 21018.74558120 .00000154 00000-0 20542-4 0 9994 2 43923 86.6103 99.1991 0002613 96.6703 263.4811 14.72254059108607 IRIDIUM 168 1 43924U 19002C 21019.19217421 .00000090 00000-0 25149-4 0 9998 2 43924 86.3970 99.0020 0002452 99.1712 260.9761 14.34216214105891 IRIDIUM 173 1 43925U 19002D 21019.17948111 .00000099 00000-0 28175-4 0 9995 2 43925 86.3967 98.9765 0002334 100.0878 260.0581 14.34215877105880 IRIDIUM 169 1 43926U 19002E 21018.79881846 .00000111 00000-0 29648-4 0 9995 2 43926 86.4251 130.7324 0005385 26.9755 333.1722 14.38612559106223 IRIDIUM 172 1 43927U 19002F 21019.17313878 .00000101 00000-0 29039-4 0 9997 2 43927 86.3967 98.9810 0002405 101.1295 259.0171 14.34217661105883 IRIDIUM 175 1 43928U 19002G 21018.73939412 .00000149 00000-0 19796-4 0 9998 2 43928 86.6087 99.0511 0001874 109.3051 250.8369 14.72254021108591 IRIDIUM 171 1 43929U 19002H 21019.15411454 .00000100 00000-0 28761-4 0 9996 2 43929 86.3977 99.0759 0002438 98.4712 261.6761 14.34216809105874 IRIDIUM 170 1 43930U 19002J 21018.75174537 .00000164 00000-0 22137-4 0 9992 2 43930 86.6103 99.2032 0002401 102.1561 257.9925 14.72256759108616 IRIDIUM 167 1 43931U 19002K 21018.72915841 .00000075 00000-0 19664-4 0 9993 2 43931 86.3969 99.1716 0002843 107.9248 252.2257 14.34216238105818